Weather History for Milwaukee Timmerman, WI

Change the Weather History Date:

Wednesday, March 20, 2013

  Actual Average Record
Temperature  
Mean Temperature 16 °F -  
Max Temperature 21 °F 44 °F 80 °F (2012)
Min Temperature 10 °F 29 °F -1 °F (1965)
Degree Days  
Heating Degree Days 50    
Moisture  
Dew Point 3 °F    
Average Humidity 57    
Maximum Humidity 62    
Minimum Humidity 49    
Precipitation  
Precipitation 0.00 in - - ()
Sea Level Pressure  
Sea Level Pressure 30.01 in    
Wind  
Wind Speed 13 mph (WNW)    
Max Wind Speed 21 mph    
Max Gust Speed 26 mph    
Visibility 10 miles    
Events      
Averages and records for this station are not official NWS values.
T = Trace of Precipitation, MM = Missing Value Source: NWS Daily Summary

Daily Weather History Graph

Daily Weather History Graph

Search for Another Location

Airport:

Trip Planner

Search our weather history database for the weather conditions in past years. The results will help you decide how hot, cold, wet, or windy it might be!

Date:

Astronomy

Mar. 20, 2013 Rise Set
Actual Time 6:54 AM CDT 7:04 PM CDT
Civil Twilight 6:26 AM CDT 7:33 PM CDT
Nautical Twilight 5:53 AM CDT 8:06 PM CDT
Astronomical Twilight 5:19 AM CDT 8:40 PM CDT
Moon 12:31 PM CDT (3/20) 2:43 AM CDT (3/20)
Length of Visible Light 13h 06m
Length of Day
12h 09m
First Quarter, 59% of the Moon is Illuminated
Mar 20
First Quarter
Mar 27
Full
Apr 2
Last Quarter
Apr 10
New
Apr 18
First Quarter

Hourly Weather History & Observations

Time (CDT) Temp. Windchill Dew Point Humidity Pressure Visibility Wind Dir Wind Speed Gust Speed Precip Events Conditions
12:15 AM 21.2 °F 8.9 °F 8.6 °F 58% 30.01 in 10.0 mi West 12.7 mph 19.6 mph N/A   Clear
12:35 AM 21.2 °F 7.8 °F 8.6 °F 58% 30.01 in 10.0 mi West 15.0 mph 19.6 mph N/A   Clear
12:55 AM 19.4 °F 7.2 °F 6.8 °F 58% 30.01 in 10.0 mi West 11.5 mph 19.6 mph N/A   Clear
1:15 AM 19.4 °F 7.9 °F 6.8 °F 58% 30.01 in 10.0 mi West 10.4 mph - N/A   Clear
1:35 AM 19.4 °F 6.0 °F 5.0 °F 54% 30.01 in 10.0 mi West 13.8 mph 20.7 mph N/A   Clear
1:55 AM 19.4 °F 7.9 °F 5.0 °F 54% 30.01 in 10.0 mi West 10.4 mph - N/A   Clear
2:15 AM 17.6 °F 5.0 °F 5.0 °F 58% 30.01 in 10.0 mi West 11.5 mph 17.3 mph N/A   Clear
2:35 AM 17.6 °F 4.3 °F 5.0 °F 58% 30.01 in 10.0 mi West 12.7 mph 19.6 mph N/A   Clear
2:55 AM 17.6 °F 4.3 °F 5.0 °F 58% 30.00 in 10.0 mi West 12.7 mph 20.7 mph N/A   Clear
3:15 AM 17.6 °F 3.2 °F 3.2 °F 53% 30.00 in 10.0 mi West 15.0 mph 23.0 mph N/A   Clear
3:35 AM 17.6 °F 5.7 °F 3.2 °F 53% 30.01 in 10.0 mi West 10.4 mph - N/A   Clear
3:55 AM 15.8 °F 3.4 °F 3.2 °F 58% 30.01 in 10.0 mi West 10.4 mph 16.1 mph N/A   Clear
4:15 AM 15.8 °F 2.7 °F 3.2 °F 58% 30.01 in 10.0 mi West 11.5 mph 17.3 mph N/A   Clear
4:35 AM 14.0 °F -0.2 °F 3.2 °F 62% 30.01 in 10.0 mi WNW 12.7 mph 18.4 mph N/A   Clear
4:55 AM 14.0 °F -2.0 °F 3.2 °F 62% 30.01 in 10.0 mi West 16.1 mph 23.0 mph N/A   Clear
5:15 AM 14.0 °F -2.5 °F 1.4 °F 57% 30.01 in 10.0 mi West 17.3 mph 23.0 mph N/A   Clear
5:35 AM 14.0 °F -1.4 °F 1.4 °F 57% 30.01 in 10.0 mi West 15.0 mph 20.7 mph N/A   Clear
5:55 AM 12.2 °F -2.5 °F 1.4 °F 62% 30.01 in 10.0 mi WNW 12.7 mph - N/A   Clear
6:15 AM 12.2 °F -4.3 °F 1.4 °F 62% 30.01 in 10.0 mi West 16.1 mph - N/A   Clear
6:35 AM 12.2 °F -3.1 °F -0.4 °F 57% 30.01 in 10.0 mi WNW 13.8 mph 19.6 mph N/A   Clear
6:45 AM 10.4 °F -5.4 °F -0.4 °F 62% 30.02 in 10.0 mi West 13.8 mph 23.0 mph N/A   Clear
6:55 AM 12.2 °F -4.8 °F -0.4 °F 57% 30.02 in 10.0 mi WNW 17.3 mph 24.2 mph N/A   Clear
7:45 AM 10.4 °F -8.6 °F -2.2 °F 57% 30.02 in 10.0 mi WNW 20.7 mph 26.5 mph N/A   Clear
8:45 AM 12.2 °F -3.1 °F -2.2 °F 53% 30.03 in 10.0 mi WNW 13.8 mph 25.3 mph N/A   Clear
9:45 AM 12.2 °F -5.3 °F -0.4 °F 57% 30.03 in 10.0 mi WNW 18.4 mph 25.3 mph N/A   Clear
10:45 AM 14.0 °F -3.4 °F -0.4 °F 53% 30.03 in 10.0 mi West 19.6 mph 25.3 mph N/A   Clear
11:45 AM 15.8 °F 1.4 °F 1.4 °F 53% 30.02 in 10.0 mi WNW 13.8 mph 24.2 mph N/A   Clear
12:45 PM 17.6 °F 2.2 °F 3.2 °F 53% 30.02 in 10.0 mi West 17.3 mph 26.5 mph N/A   Clear
1:45 PM 19.4 °F 4.1 °F 3.2 °F 49% 30.01 in 10.0 mi West 18.4 mph 26.5 mph N/A   Clear
2:45 PM 17.6 °F 4.3 °F 3.2 °F 53% 30.00 in 10.0 mi West 12.7 mph 21.9 mph N/A   Mostly Cloudy
3:45 PM 19.4 °F 4.5 °F 3.2 °F 49% 30.00 in 10.0 mi WNW 17.3 mph 23.0 mph N/A   Overcast
4:45 PM 19.4 °F 4.5 °F 3.2 °F 49% 30.00 in 10.0 mi West 17.3 mph 24.2 mph N/A   Mostly Cloudy
5:45 PM 17.6 °F 3.7 °F 3.2 °F 53% 30.01 in 10.0 mi WNW 13.8 mph 21.9 mph N/A   Scattered Clouds
6:50 PM 17.6 °F 6.4 °F 3.2 °F 53% 30.01 in 10.0 mi WNW 9.2 mph - N/A   Clear
7:50 PM 15.8 °F 3.4 °F 1.4 °F 53% 30.02 in 10.0 mi WNW 10.4 mph - N/A   Clear
8:45 PM 15.8 °F 4.2 °F 1.4 °F 53% 30.02 in 10.0 mi WNW 9.2 mph - N/A   Clear
9:15 PM 15.8 °F 5.1 °F 3.2 °F 58% 30.03 in 10.0 mi WNW 8.1 mph - N/A   Clear
9:35 PM 14.0 °F 2.9 °F 3.2 °F 62% 30.03 in 10.0 mi WNW 8.1 mph - N/A   Clear
9:55 PM 14.0 °F 1.2 °F 3.2 °F 62% 30.03 in 10.0 mi WNW 10.4 mph - N/A   Clear
10:15 PM 14.0 °F 2.0 °F 3.2 °F 62% 30.03 in 10.0 mi WNW 9.2 mph - N/A   Clear
10:35 PM 14.0 °F 1.2 °F 3.2 °F 62% 30.03 in 10.0 mi WNW 10.4 mph - N/A   Clear
10:55 PM 14.0 °F -0.2 °F 1.4 °F 57% 30.02 in 10.0 mi WNW 12.7 mph - N/A   Clear
11:15 PM 14.0 °F 0.5 °F 1.4 °F 57% 30.02 in 10.0 mi WNW 11.5 mph - N/A   Clear
11:35 PM 14.0 °F 1.2 °F 3.2 °F 62% 30.02 in 10.0 mi WNW 10.4 mph 16.1 mph N/A   Clear
11:55 PM 14.0 °F 1.2 °F 3.2 °F 62% 30.01 in 10.0 mi NW 10.4 mph 16.1 mph N/A   Clear